MPEC 2008-E09 : COMET C/2007 T1 (McNAUGHT)

The following Minor Planet Electronic Circular may be linked-to from your own Web pages, but must not otherwise be redistributed electronically.


Read MPEC 2008-E08 Read MPEC 2008-E10


M.P.E.C. 2008-E09                                Issued 2008 Mar. 1, 16:23 UT

     The Minor Planet Electronic Circulars contain information on unusual
         minor planets and routine data on comets.  They are published
   on behalf of Commission 20 of the International Astronomical Union by the
          Minor Planet Center, Smithsonian Astrophysical Observatory,
                          Cambridge, MA 02138, U.S.A.

             Prepared using the Tamkin Foundation Computer Network

                              MPC@CFA.HARVARD.EDU
          URL http://www.cfa.harvard.edu/iau/mpc.html  ISSN 1523-6714

                          COMET C/2007 T1 (McNAUGHT)

Observations:
    CK07T010  C2008 02 26.36167 05 55 39.16 -46 57 52.0          15.6 N EE009467
    CK07T010  C2008 02 26.36244 05 55 39.12 -46 57 47.4          15.6 N EE009467
    CK07T010  C2008 02 26.36321 05 55 39.11 -46 57 42.7          15.6 N EE009467
    CK07T010  C2008 02 28.37984 05 55 56.00 -43 42 31.5          16.4 N EE009467
    CK07T010  C2008 02 28.38060 05 55 56.02 -43 42 26.9          16.5 N EE009467
    CK07T010  C2008 02 28.38137 05 55 56.02 -43 42 22.4          16.4 N EE009467
    CK07T010  C2008 02 29.51291 05 56 10.39 -41 56 04.1          13.3 T EE009E12
    CK07T010  C2008 02 29.52183 05 56 10.49 -41 55 14.4                 EE009E12
    CK07T010  C2008 02 29.53076 05 56 10.60 -41 54 24.5                 EE009E12
    CK07T010  C2008 02 29.53964 05 56 10.701-41 53 34.89                EE009E12

Observer details:
467 Auckland Observatory.  Observers G. W. Christie, T. Natusch, J. McCormick.
    Measurer G. W. Christie.  0.40-m f/10 Schmidt-Cassegrain + CCD.
E12 Siding Spring Survey.  Observer R. H. McNaught.  0.5-m Uppsala Schmidt
    + CCD.

Orbital elements:
    C/2007 T1 (McNaught)
Epoch 2007 Dec. 6.0 TT = JDT 2454440.5
T 2007 Dec. 12.52962 TT                                 MPC
q   0.9685014            (2000.0)            P               Q
z  +0.0002585      Peri.  233.75498     -0.13224632     -0.55004723
 +/-0.0000041      Node   111.43353     -0.34619671     +0.80514443
e   0.9997496      Incl.  117.64240     -0.92879424     -0.22178930
Residuals in seconds of arc
071009 E12  0.1-  0.4-    071012 415  0.3-  1.1-    071021 D88  0.5+  0.3+
071009 E12  0.1-  0.5-    071012 E00  1.2+  0.2+    071021 349  0.1+  0.1+
071009 E12  0.0   0.6-    071012 E00  0.6+  1.0-    071021 349  0.1+  0.0
071009 E12  0.1-  0.4-    071012 E00  1.3+  0.6+    071021 D88  0.1-  0.3+
071009 595  0.4+  0.6+    071012 A77  0.0   0.7+    071021 D81  1.6+  1.1+
071009 473  1.1+  0.3+    071012 A77  0.6-  0.1-    071021 372  0.6+  0.4-
071009 473  0.7-  0.9+    071012 A77  0.0   0.3+    071021 D81  0.6-  0.0
071009 595  0.1+  0.4+    071012 I77  0.4+  0.0     071021 D81  1.0+  1.9-
071009 595  1.1+  0.4+    071012 I77  0.4+  0.2-    071021 D81  0.8-  1.7+
071009 024  0.6-  0.2-    071013 H47  1.7-  0.0     071021 372  0.2+  0.5-
071009 151  0.4+  0.6+    071013 H47  0.0   0.2-    071021 E12  0.3-  0.3-
071009 151  0.7+  0.1+    071013 H06  0.3+  0.2-    071021 372  1.3+  0.6-
071009 024  0.2-  0.0     071013 H06  0.4-  0.5-    071021 E12  0.3-  0.4-
071009 151  0.8+  0.0     071013 E12  0.2-  0.4-    071021 D70  0.2+  0.4-
071009 024  0.4-  0.2-    071013 E12  0.2-  0.4-    071021 D70  0.4-  0.7-
071009 B04  0.5-  0.5+    071013 E12  0.1-  0.5-    071021 D70  0.7-  0.5-
071009 B04  0.3-  0.0     071013 E11  0.5-  0.2+    071021 213  0.4-  0.0
071009 B04  0.6+  0.1+    071013 E11  0.0   0.4-    071021 213  0.6-  0.6-
071009 151  0.1+  0.0     071013 104  0.3+  0.1+    071022 E12  0.2-  0.5-
071009 B04  0.4-  0.0     071013 104  0.1+  0.1+    071023 372  0.3-  0.6+
071009 595  0.6+  0.3+    071013 104  0.1-  0.2+    071028 349  0.0   0.2-
071009 151  0.1+  0.1-    071013 235  0.4-  0.1+    071028 349  0.1+  0.1-
071009 151  0.1-  0.2-    071013 J47  0.5+  0.1-    071028 349  0.0   0.1-
071009 B04  0.3-  0.2+    071013 J47  0.3-  0.0     071028 D88  0.1+  0.3+
071009 B04  1.0-  0.1+    071013 J47  0.7+  0.5-    071028 D88  0.1-  0.3+
071009 595  0.7+  0.0     071013 J47  0.5+  0.2-    071028 D88  0.1+  0.2+
071009 A77  0.8+  0.2-    071013 J47  0.9-  0.9+    071103 349  1.0+  0.4+
071009 A77  0.8+  0.5-    071014 H47  0.2-  0.1+    071103 349  1.0+  0.7+
071009 A77  0.7+  0.0     071014 H47  0.5+  0.5+    071103 349  0.7+  0.7+
071009 A77  1.0+  0.1-    071014 E12  0.2-  0.4-    071104 349  0.7+  0.2-
071009 046  0.0   0.6+    071014 E12  0.3-  0.4-    071104 349  0.5+  0.1+
071009 A77  0.7+  0.1-    071014 E00  0.4+  1.4-    080108 834  1.1-  0.1+
071009 046  0.2+  0.4+    071014 E00  0.1+  0.3-    080108 834  0.9-  0.2+
071009 046  0.1-  0.0     071014 E00  0.7+  0.9+    080108 834  0.9-  0.2+
071009 046  0.0   0.4+    071014 415  0.2-  0.2-    080110 423  1.1-  0.2-
071009 A77  0.7+  0.2-    071014 415  0.1-  0.7-    080110 423  1.5-  1.0-
071009 046  0.2-  0.4+    071014 246  0.2+  0.0     080111 E00  0.3+  0.1+
071009 046  0.3-  0.2+    071014 246  0.1+  0.1-    080111 E00 (2.1-  1.9-)
071009 046  0.4-  0.7+    071014 246  0.1+  0.1+    080111 E00  1.6-  0.7-
071009 046  0.5-  0.7+    071014 246  0.3+  0.0     080111 423  1.1-  0.1-
071009 046  0.5-  0.4+    071014 246  0.0   0.1-    080111 423  0.7-  0.0
071009 A77  0.9+  0.0     071014 246  0.2+  0.0     080112 834  0.5-  0.2+
071009 J95  0.0   0.6+    071014 235  0.4-  0.0     080112 834  1.0-  0.0
071009 A77  1.2+  0.2-    071014 A18  0.1+  0.5+    080112 834  0.4-  0.1-
071009 J95  0.2+  0.4+    071014 A18  0.3+  0.2+    080112 834  0.8-  0.1-
071009 J95  0.0   0.1+    071014 J70  0.2-  0.4-    080115 423  1.1-  0.7-
071009 J95  0.0   0.0     071014 J70  1.2-  1.1-    080115 423  0.5-  0.0
071009 A77  0.5+  0.0     071014 J70  0.3-  0.2+    080117 834  0.2-  0.2+
071009 A77  0.7+  0.0     071014 J70  1.2-  0.3-    080117 834  0.8-  0.3-
071009 A77  0.6+  0.2-    071014 J70  0.4+  0.2+    080120 834  0.8-  0.4+
071009 A77  0.8+  0.0     071014 J70  0.6+  1.6-    080120 834  0.7-  0.1-
071009 A77  0.7+  0.2+    071014 A18  0.0   0.1-    080126 467  0.4-  0.6-
071009 A77  0.5+  0.3+    071014 I77  1.8+  0.1+    080126 467  0.5-  0.0
071009 I77  0.2+  0.1-    071015 E12  0.3-  0.3-    080126 467  0.4-  0.1-
071009 I77  0.1+  0.2-    071015 J70  0.3+  0.6-    080127 D90  0.3-  0.1+
071009 I77  0.5-  0.2-    071015 J70  0.2+  0.1+    080127 D90  0.1-  0.1-
071010 H06  0.8+  0.5+    071015 J70  1.1+  0.7-    080201 467  0.1+  0.2+
071010 H06  0.1-  0.0     071015 J70  1.8+  1.2-    080201 467  0.3+  0.1-
071010 104  1.4-  1.0+    071015 I77  0.9+  0.5-    080201 467  0.2+  0.1+
071010 104 (2.6+  0.5+)   071015 I77  0.2-  0.3-    080202 E00  0.6+  0.2+
071010 104  0.8+  1.2+    071015 I77  0.2-  0.3-    080202 E00  1.3-  0.2+
071010 104 (2.1+  1.5+)   071016 E12  0.2-  0.4-    080202 E00 (3.0+  0.3-)
071010 204  0.3-  0.3+    071016 E12  0.3-  0.3-    080205 467  0.2-  0.3+
071010 204  0.0   0.3+    071016 585  0.5-  1.4+    080205 467  0.3+  0.3+
071010 J46  0.2+  0.2+    071016 585  0.6-  0.6+    080205 467  0.0   0.3+
071010 204  0.5+  0.4+    071016 585  0.6-  0.1-    080206 467  0.0   0.0
071010 204  0.0   0.1+    071016 585  0.2+  0.6+    080206 467  0.1-  0.1-
071010 J46  0.3+  0.3+    071016 585  1.1-  0.8+    080206 467  0.0   0.0
071010 J46  0.4-  0.3+    071016 A97  1.4-  0.4+    080208 467  0.0   0.2-
071010 J47  0.7+  0.8+    071016 A97 (0.1-  2.1-)   080208 467  0.3-  0.3-
071010 J47  0.2-  1.1+    071018 E12  0.1-  0.4-    080208 467  0.1+  0.4-
071010 J47  1.0+  0.6-    071018 E12  0.2-  0.4-    080210 834  0.2-  0.6-
071010 J47  0.5-  0.0     071019 E12  0.3-  0.3-    080210 834  0.6-  0.4-
071010 I77  0.5-  1.1-    071020 413  0.7-  0.3-    080210 834  0.3-  0.3-
071010 I77  0.4-  0.4-    071020 413  0.7-  0.2-    080210 834  0.1+  0.2-
071010 I77  0.4-  0.2+    071020 413  0.7-  0.1-    080212 834  0.4-  0.1-
071011 H68  0.0   1.3-    071020 413  0.7-  0.1-    080212 834  0.5-  0.0
071011 H68  0.2+  1.1-    071020 D88  0.4+  0.2+    080212 834  0.5-  0.5-
071011 H47  0.3-  0.3-    071020 413  0.7-  0.1-    080212 834  0.6-  0.4-
071011 H47  0.4-  0.4+    071020 413  0.7-  0.1-    080216 415  0.4-  0.1-
071011 H68  0.0   1.0-    071020 413  0.7-  0.1-    080216 415  0.7-  0.7-
071011 H68  0.1+  1.0-    071020 413  0.7-  0.1-    080226 467  0.4-  0.3-
071011 H68  0.1+  1.0-    071020 413  0.7-  0.1-    080226 467  0.8-  0.3-
071011 415  0.1-  0.1-    071020 349  0.2+  0.2-    080226 467  1.0-  0.2-
071011 415  0.1+  0.3-    071020 413  0.7-  0.2-    080228 467  1.0-  0.3-
071011 235  0.3-  0.5+    071020 D88  0.5+  0.4+    080228 467  0.8-  0.0
071012 H47  0.3-  0.3+    071020 349  0.2+  0.2-    080228 467  0.9-  0.1+
071012 H47  0.6-  0.1-    071020 D88  0.5+  0.4+    080229 E12  0.7-  0.0
071012 E12  0.1-  0.4-    071020 349  0.0   0.2-    080229 E12  0.7-  0.1-
071012 E12  0.2-  0.8-    071021 D88  0.0   1.1+    080229 E12  0.7-  0.2-
071012 415  0.3-  0.2-    071021 349  0.1+  0.1-    080229 E12  0.8-  0.2-

     The "original" and "future" barycentric values of 1/a are +0.000627
and +0.000476 (+/- 0.000004) AU^-1, respectively.

Brian G. Marsden             (C) Copyright 2008 MPC           M.P.E.C. 2008-E09

Read MPEC 2008-E08 Read MPEC 2008-E10


Our Web policy. Index to the CBAT/MPC/ICQ pages.

MPC

Valid HTML 4.01!